FW8870 Weather Reports


Display with metric or nautical units.
time (UTC)temp
F
wind
direction
speed
MPH
gust
MPH
rain 1hr
in
rain 24hr
in
rain mn
in
humidity
%
barometer
mb
20260510124553 50 261 0.0 0.0 0.00 0.00 0.00 98 1018.7
20260510124050 50 46 0.0 0.0 0.00 0.00 0.00 98 1018.7
20260510123545 50 181 0.0 0.0 0.00 0.00 0.00 97 1018.5
20260510123041 50 329 0.0 0.0 0.00 0.00 0.00 97 1018.8
20260510122537 50 335 0.0 0.0 0.00 0.00 0.00 96 1018.8
20260510122033 50 107 0.0 0.0 0.00 0.00 0.00 96 1018.7
20260510121531 50 336 0.0 0.0 0.00 0.00 0.00 96 1018.9
20260510121028 50 349 0.0 0.0 0.00 0.00 0.00 96 1019.0
20260510120525 51 352 0.0 0.0 0.00 0.00 0.00 96 1018.8
20260510120021 51 8 0.0 0.0 0.00 0.00 0.00 96 1018.7
20260510115518 51 352 0.0 0.0 0.00 0.00 0.00 96 1018.5
20260510115014 51 169 0.0 0.0 0.00 0.00 0.00 95 1018.6
20260510114511 51 340 0.0 0.0 0.00 0.00 0.00 95 1018.5
20260510114007 51 133 0.0 0.0 0.00 0.00 0.00 94 1018.4
20260510113502 51 107 0.0 0.0 0.00 0.00 0.00 94 1018.6
20260510113000 50 180 0.0 0.0 0.00 0.00 0.00 97 1018.6
20260510112457 49 7 0.0 0.0 0.00 0.00 0.00 99 1018.7
20260510111953 49 330 0.0 0.0 0.00 0.00 0.00 99 1018.7
20260510111449 48 279 0.0 0.0 0.00 0.00 0.00 99 1018.6
20260510110945 49 328 0.0 0.0 0.00 0.00 0.00 99 1018.6
20260510110442 49 280 0.0 0.0 0.00 0.00 0.00 99 1018.4
20260510105938 49 332 0.0 0.0 0.00 0.00 0.00 99 1018.6
20260510105433 50 341 0.0 0.0 0.00 0.00 0.00 99 1018.5
20260510104928 49 358 0.0 0.0 0.00 0.00 0.00 99 1018.8
20260510104426 48 153 0.0 0.0 0.00 0.00 0.00 99 1018.7
20260510103922 48 117 0.0 0.0 0.00 0.00 0.00 99 1018.7
20260510103420 49 316 0.0 0.0 0.00 0.00 0.00 99 1018.7
20260510102914 49 126 0.0 0.0 0.00 0.00 0.00 99 1019.0
20260510102411 49 44 0.0 0.0 0.00 0.00 0.00 99 1018.9
20260510101908 48 318 0.0 0.0 0.00 0.00 0.00 99 1018.7
20260510101406 48 324 0.0 0.0 0.00 0.00 0.00 99 1018.8
20260510100903 49 324 0.0 0.0 0.00 0.00 0.00 99 1018.8
20260510100400 49 332 0.0 0.0 0.00 0.00 0.00 99 1018.8
20260510095856 49 317 0.0 0.0 0.00 0.00 0.00 99 1018.8
20260510095351 49 317 0.0 0.0 0.00 0.00 0.00 99 1019.0
20260510094850 49 325 0.0 0.0 0.00 0.00 0.00 99 1018.7
20260510094346 49 316 0.0 0.0 0.00 0.00 0.00 99 1018.7
20260510093842 49 345 0.0 0.0 0.00 0.00 0.00 99 1018.7
20260510093338 49 327 0.0 0.0 0.00 0.00 0.00 99 1018.7
20260510092834 49 305 0.0 0.0 0.00 0.00 0.00 99 1018.4
20260510092331 49 317 0.0 0.0 0.00 0.00 0.00 99 1018.5
20260510091826 50 318 0.0 0.0 0.00 0.00 0.00 99 1018.4
20260510091324 50 341 0.0 0.0 0.00 0.00 0.00 99 1018.3
20260510090820 50 341 0.0 0.0 0.00 0.00 0.00 99 1018.5
20260510090317 50 329 0.0 0.0 0.00 0.00 0.00 99 1018.4
20260510085813 50 304 0.0 0.0 0.00 0.00 0.00 99 1018.4
20260510085307 49 332 0.0 0.0 0.00 0.00 0.00 99 1018.1
20260510084803 50 339 0.0 0.0 0.00 0.00 0.00 99 1018.2
20260510084300 49 313 0.0 0.0 0.00 0.00 0.00 99 1018.1
20260510083757 49 321 0.0 0.0 0.00 0.00 0.00 99 1018.1
20260510083254 49 317 0.0 0.0 0.00 0.00 0.00 99 1018.1
20260510082749 49 320 0.0 0.0 0.00 0.00 0.00 99 1018.2
20260510082246 49 337 0.0 0.0 0.00 0.00 0.00 99 1018.0
20260510081745 49 303 0.0 0.0 0.00 0.00 0.00 99 1018.1
20260510081241 49 346 0.0 0.0 0.00 0.00 0.00 99 1018.2
20260510080737 49 345 0.0 0.0 0.00 0.00 0.00 99 1018.5
20260510080232 49 345 0.0 0.0 0.00 0.00 0.00 99 1018.1
20260510075729 49 346 0.0 0.0 0.00 0.00 0.00 99 1018.1
20260510075227 49 322 0.0 0.0 0.00 0.00 0.00 99 1018.1
20260510074724 50 322 0.0 0.0 0.00 0.00 0.00 99 1018.2
20260510074220 50 350 0.0 0.0 0.00 0.00 0.00 99 1018.0
20260510073717 49 334 0.0 0.0 0.00 0.00 0.00 99 1018.1
20260510073212 49 335 0.0 0.0 0.00 0.00 0.00 99 1018.0
20260510072708 50 326 0.0 0.0 0.00 0.00 0.00 99 1018.1
20260510072205 50 332 0.0 0.0 0.00 0.00 0.00 99 1018.2
20260510071702 50 332 0.0 0.0 0.00 0.00 0.00 99 1018.0
20260510071159 50 332 0.0 0.0 0.00 0.00 0.00 99 1018.1
20260510070656 50 332 0.0 0.0 0.00 0.00 0.00 99 1017.9
20260510070154 50 332 0.0 0.0 0.00 0.00 0.00 99 1017.7
20260510065649 50 332 0.0 0.0 0.00 0.00 0.00 99 1017.9
20260510065145 50 332 0.0 0.0 0.00 0.00 0.00 99 1017.7
20260510064642 51 326 0.0 0.0 0.00 0.00 0.00 99 1017.9
20260510064139 51 333 0.0 0.0 0.00 0.00 0.00 99 1017.8
20260510063636 51 318 0.0 0.0 0.00 0.00 0.00 99 1017.8
20260510063133 51 324 0.0 0.0 0.00 0.00 0.00 99 1017.8
20260510062628 51 306 0.0 0.0 0.00 0.00 0.00 99 1017.7
20260510062124 51 279 0.0 0.0 0.00 0.00 0.00 99 1017.9
20260510061620 51 328 0.0 0.0 0.00 0.00 0.00 99 1018.1
20260510061118 51 320 0.0 0.0 0.00 0.00 0.00 99 1017.9
20260510060614 51 340 0.0 0.0 0.00 0.00 0.00 99 1017.9
20260510060110 50 340 0.0 0.0 0.00 0.00 0.00 99 1018.0
20260510055607 51 340 0.0 0.0 0.00 0.00 0.00 99 1018.2
20260510055105 51 340 0.0 0.0 0.00 0.00 0.00 99 1018.0
20260510054600 51 340 0.0 0.0 0.00 0.00 0.00 99 1017.9
20260510054055 51 340 0.0 0.0 0.00 0.00 0.00 99 1018.2
20260510053555 51 340 0.0 0.0 0.00 0.00 0.00 99 1018.1
20260510053052 51 340 0.0 0.0 0.00 0.00 0.00 99 1017.9
20260510052548 51 340 0.0 0.0 0.00 0.00 0.00 99 1018.0
20260510052044 51 340 0.0 0.0 0.00 0.00 0.00 99 1018.1
20260510051540 51 340 0.0 0.0 0.00 0.00 0.00 99 1018.3
20260510051037 52 340 0.0 0.0 0.00 0.00 0.00 99 1018.3
20260510050534 52 340 0.0 0.0 0.00 0.00 0.00 99 1018.3
20260510050031 52 340 0.0 0.0 0.00 0.00 0.00 98 1018.4
20260510045529 52 340 0.0 0.0 0.00 0.00 0.00 98 1018.2
20260510045024 53 340 0.0 0.0 0.00 0.00 0.00 97 1018.1
20260510044521 53 340 0.0 0.0 0.00 0.00 0.00 97 1018.1
20260510044019 53 340 0.0 0.0 0.00 0.00 0.00 97 1018.1
20260510043514 53 340 0.0 0.0 0.00 0.00 0.00 96 1018.0
20260510043010 53 340 0.0 0.0 0.00 0.00 0.00 96 1018.1
20260510042503 54 340 0.0 0.0 0.00 0.00 0.00 95 1018.0
20260510041958 54 340 0.0 0.0 0.00 0.00 0.00 95 1018.0
20260510041456 54 340 0.0 0.0 0.00 0.00 0.00 94 1018.0
20260510040954 55 340 0.0 0.0 0.00 0.00 0.00 92 1017.9
20260510040450 55 340 0.0 0.0 0.00 0.00 0.00 91 1017.9
20260510035946 55 340 0.0 0.0 0.00 0.00 0.00 91 1017.8
20260510035443 56 340 0.0 0.0 0.00 0.00 0.00 91 1017.8
20260510034942 56 340 0.0 0.0 0.00 0.00 0.00 91 1017.6
20260510034441 57 340 0.0 0.0 0.00 0.00 0.00 89 1017.6
20260510033937 57 340 0.0 0.0 0.00 0.00 0.00 88 1017.8
20260510033433 58 340 0.0 0.0 0.00 0.00 0.00 86 1017.7
20260510032931 58 340 0.0 0.0 0.00 0.00 0.00 86 1017.6
20260510032427 59 340 0.0 0.0 0.00 0.00 0.00 83 1017.5
20260510031922 60 340 0.0 0.0 0.00 0.00 0.00 83 1017.6
20260510031418 60 340 0.0 0.0 0.00 0.00 0.00 83 1017.7
20260510030913 60 340 0.0 0.0 0.00 0.00 0.00 82 1017.6
20260510030409 61 340 0.0 0.0 0.00 0.00 0.00 81 1017.6
20260510025907 61 340 0.0 0.0 0.00 0.00 0.00 80 1017.5
20260510025405 62 340 0.0 0.0 0.00 0.00 0.00 78 1017.5
20260510024902 62 341 0.0 0.0 0.00 0.00 0.00 78 1017.5
20260510024358 62 328 0.0 0.0 0.00 0.00 0.00 77 1018.0
20260510023854 63 328 0.0 0.0 0.00 0.00 0.00 76 1017.6
20260510023351 64 328 0.0 0.0 0.00 0.00 0.00 75 1017.7
20260510022848 64 324 0.0 0.0 0.00 0.00 0.00 73 1017.5
20260510022347 64 324 0.0 0.0 0.00 0.00 0.00 73 1017.9
20260510021846 65 323 0.0 0.0 0.00 0.00 0.00 74 1017.9
20260510021344 65 324 0.0 0.0 0.00 0.00 0.00 73 1018.2
20260510020841 66 324 0.0 0.0 0.00 0.00 0.00 72 1018.1
20260510020340 66 324 0.0 0.0 0.00 0.00 0.00 71 1018.0
20260510015836 66 324 0.0 0.0 0.00 0.00 0.00 70 1018.2
20260510015332 67 318 0.0 0.0 0.00 0.00 0.00 69 1018.5
20260510014828 67 318 0.0 0.0 0.00 0.00 0.00 68 1018.3
20260510014325 67 318 0.0 0.0 0.00 0.00 0.00 69 1018.3
20260510013821 67 318 0.0 0.0 0.00 0.00 0.00 66 1018.4
20260510013317 67 329 0.0 0.0 0.00 0.00 0.00 65 1018.5
20260510012813 68 333 0.0 0.0 0.00 0.00 0.00 67 1018.6
20260510012312 69 315 0.0 0.0 0.00 0.00 0.00 67 1018.6
20260510011807 69 311 0.0 0.0 0.00 0.00 0.00 60 1018.7
20260510011303 69 298 0.0 0.0 0.00 0.00 0.00 61 1018.6
20260510010759 70 332 0.0 0.0 0.00 0.00 0.00 62 1018.5
20260510010256 69 241 0.0 0.0 0.00 0.00 0.00 62 1018.8
20260510005753 70 345 0.0 0.0 0.00 0.00 0.00 63 1018.9
20260510005249 69 319 0.0 0.0 0.00 0.00 0.00 60 1019.1
20260510004747 68 35 0.0 0.0 0.00 0.00 0.00 61 1019.1
20260510004245 68 293 0.0 0.0 0.00 0.00 0.00 63 1019.0
20260510003742 69 41 0.0 0.0 0.00 0.00 0.00 63 1019.1
20260510003239 68 340 0.0 0.0 0.00 0.00 0.00 65 1019.3
20260510002737 68 348 0.0 0.0 0.00 0.00 0.00 65 1019.4
20260510002235 68 315 0.0 0.0 0.00 0.00 0.00 65 1019.1
20260510001731 70 132 0.0 0.0 0.00 0.00 0.00 59 1019.4
20260510001230 71 349 0.0 1.0 0.00 0.00 0.00 58 1019.6
20260510000725 71 134 0.0 0.0 0.00 0.00 0.00 58 1019.5
20260510000223 71 274 0.0 0.0 0.00 0.00 0.00 63 1019.5
20260509235720 71 345 0.0 0.0 0.00 0.00 0.00 63 1019.6
20260509235216 70 274 0.0 0.0 0.00 0.00 0.00 59 1019.7
20260509234712 70 325 0.0 0.0 0.00 0.00 0.00 61 1019.8
20260509234209 71 229 0.0 0.0 0.00 0.00 0.00 61 1020.0
20260509233708 70 335 0.0 0.0 0.00 0.00 0.00 61 1020.1
20260509233205 70 312 0.0 0.0 0.00 0.00 0.00 60 1020.0
20260509232701 70 67 0.0 1.0 0.00 0.00 0.00 62 1020.0
20260509232157 69 31 0.0 0.0 0.00 0.00 0.00 61 1020.3
20260509231654 69 10 0.0 0.0 0.00 0.00 0.00 61 1020.2
20260509231152 69 258 0.0 0.0 0.00 0.00 0.00 57 1020.3
20260509230649 70 329 0.0 1.0 0.00 0.00 0.00 56 1020.5
20260509230146 70 354 1.0 3.0 0.00 0.00 0.00 55 1020.7
20260509225641 70 1 0.0 0.0 0.00 0.00 0.00 60 1020.7
20260509225137 70 11 0.0 0.0 0.00 0.00 0.00 57 1020.9
20260509224632 72 313 0.0 0.0 0.00 0.00 0.00 54 1020.5
20260509224129 72 315 0.0 0.0 0.00 0.00 0.00 60 1020.7
20260509223627 70 333 0.0 0.0 0.00 0.00 0.00 56 1020.8
20260509223124 71 309 0.0 0.0 0.00 0.00 0.00 56 1020.7
20260509222620 70 303 0.0 0.0 0.00 0.00 0.00 57 1020.9
20260509222116 70 293 0.0 0.0 0.00 0.00 0.00 56 1021.0
20260509221612 69 314 0.0 0.0 0.00 0.00 0.00 62 1021.0
20260509221108 69 323 0.0 0.0 0.00 0.00 0.00 59 1021.1
20260509220604 69 355 0.0 0.0 0.00 0.00 0.00 63 1021.1
20260509220101 69 28 0.0 0.0 0.00 0.00 0.00 60 1020.9
20260509215556 70 69 0.0 0.0 0.00 0.00 0.00 61 1021.2
20260509215054 70 314 0.0 0.0 0.00 0.00 0.00 58 1021.1
20260509214551 71 315 0.0 0.0 0.00 0.00 0.00 55 1021.0
20260509214047 71 309 0.0 1.0 0.00 0.00 0.00 58 1021.2
20260509213543 70 334 0.0 0.0 0.00 0.00 0.00 60 1021.4
20260509213040 70 307 0.0 0.0 0.00 0.00 0.00 65 1021.5
20260509212537 68 341 0.0 0.0 0.00 0.00 0.00 58 1021.7
20260509212034 68 354 0.0 0.0 0.00 0.00 0.00 60 1021.5
20260509211530 69 16 0.0 0.0 0.00 0.00 0.00 61 1021.5
20260509211027 69 304 0.0 0.0 0.00 0.00 0.00 59 1021.4
20260509210524 69 351 0.0 0.0 0.00 0.00 0.00 58 1021.5
20260509210020 69 342 0.0 0.0 0.00 0.00 0.00 61 1021.4
20260509205514 71 14 0.0 0.0 0.00 0.00 0.00 59 1021.5
20260509205010 69 7 0.0 0.0 0.00 0.00 0.00 59 1021.3
20260509204507 69 11 0.0 0.0 0.00 0.00 0.00 61 1021.6
20260509204003 69 347 0.0 0.0 0.00 0.00 0.00 65 1021.4
20260509203459 69 324 0.0 0.0 0.00 0.00 0.00 59 1021.4
20260509202957 69 335 0.0 0.0 0.00 0.00 0.00 58 1021.7
20260509202452 68 298 0.0 0.0 0.00 0.00 0.00 57 1021.6
20260509201948 69 277 0.0 0.0 0.00 0.00 0.00 60 1021.7
20260509201443 69 81 0.0 0.0 0.00 0.00 0.00 62 1021.6
20260509200940 69 296 0.0 0.0 0.00 0.00 0.00 59 1021.7
20260509200440 68 334 0.0 0.0 0.00 0.00 0.00 63 1021.9
20260509195937 68 25 0.0 0.0 0.00 0.00 0.00 61 1021.8
20260509195433 68 301 0.0 0.0 0.00 0.00 0.00 65 1022.0
20260509194932 68 76 0.0 0.0 0.00 0.00 0.00 61 1021.9
20260509194428 68 137 0.0 1.0 0.00 0.00 0.00 63 1022.1
20260509193926 67 169 0.0 0.0 0.00 0.00 0.00 60 1022.0
20260509193425 67 21 0.0 0.0 0.00 0.00 0.00 64 1022.2
20260509192921 68 274 0.0 0.0 0.00 0.00 0.00 64 1022.5
20260509192418 67 26 0.0 0.0 0.00 0.00 0.00 63 1022.4
20260509191912 66 114 0.0 0.0 0.00 0.00 0.00 62 1022.4
20260509191408 68 55 0.0 0.0 0.00 0.00 0.00 63 1022.6
20260509190904 68 299 0.0 0.0 0.00 0.00 0.00 61 1022.5
20260509190402 68 349 0.0 0.0 0.00 0.00 0.00 62 1022.5
20260509185900 67 294 0.0 0.0 0.00 0.00 0.00 63 1022.6
20260509185356 67 342 1.0 2.0 0.00 0.00 0.00 58 1022.6
20260509184853 67 337 0.0 0.0 0.00 0.00 0.00 58 1022.7
20260509184350 67 126 0.0 0.0 0.00 0.00 0.00 66 1022.7
20260509183847 67 309 0.0 0.0 0.00 0.00 0.00 60 1022.7
20260509183342 67 172 0.0 0.0 0.00 0.00 0.00 60 1022.7
20260509182838 67 303 0.0 0.0 0.00 0.00 0.00 63 1023.0
20260509182335 66 74 0.0 0.0 0.00 0.00 0.00 65 1022.9
20260509181833 66 166 0.0 0.0 0.00 0.00 0.00 67 1023.0
20260509181330 66 30 0.0 0.0 0.00 0.00 0.00 68 1023.0
20260509180827 66 356 0.0 0.0 0.00 0.00 0.00 63 1023.0
20260509180323 66 136 0.0 0.0 0.00 0.00 0.00 67 1023.1
20260509175820 65 44 0.0 0.0 0.00 0.00 0.00 67 1023.0
20260509175316 66 25 0.0 0.0 0.00 0.00 0.00 62 1023.1
20260509174812 65 93 0.0 0.0 0.00 0.00 0.00 65 1023.0
20260509174308 65 331 0.0 0.0 0.00 0.00 0.00 65 1023.2
20260509173804 65 329 0.0 0.0 0.00 0.00 0.00 67 1023.5
20260509173300 64 134 4.0 6.0 0.00 0.00 0.00 69 1023.3
20260509172756 65 115 0.0 0.0 0.00 0.00 0.00 70 1023.5
20260509172253 65 85 0.0 1.0 0.00 0.00 0.00 65 1023.6
20260509171748 65 340 0.0 0.0 0.00 0.00 0.00 71 1023.4
20260509171245 64 335 0.0 0.0 0.00 0.00 0.00 67 1023.9
20260509170741 64 43 0.0 0.0 0.00 0.00 0.00 71 1023.5
20260509170237 64 338 0.0 0.0 0.00 0.00 0.00 69 1023.5
20260509165736 64 28 0.0 0.0 0.00 0.00 0.00 71 1024.0
20260509165231 64 108 0.0 0.0 0.00 0.00 0.00 69 1023.8
20260509164727 62 352 0.0 0.0 0.00 0.00 0.00 73 1023.9
20260509164223 63 12 0.0 0.0 0.00 0.00 0.00 72 1023.9
20260509163721 63 4 0.0 0.0 0.00 0.00 0.00 70 1024.2
20260509163217 62 351 0.0 0.0 0.00 0.00 0.00 73 1024.2
20260509162715 62 348 0.0 0.0 0.00 0.00 0.00 75 1024.3
20260509162210 62 338 0.0 0.0 0.00 0.00 0.00 72 1024.3
20260509161706 61 55 0.0 0.0 0.00 0.00 0.00 74 1024.6
20260509161202 61 351 0.0 0.0 0.00 0.00 0.00 76 1024.3
20260509160657 61 345 0.0 0.0 0.00 0.00 0.00 76 1024.3
20260509160153 60 357 0.0 0.0 0.00 0.00 0.00 75 1024.6
20260509155649 60 357 0.0 0.0 0.00 0.00 0.00 76 1024.6
20260509155146 59 357 0.0 0.0 0.00 0.00 0.00 76 1024.6
20260509154641 58 1 0.0 0.0 0.00 0.00 0.00 81 1024.5
20260509154139 59 350 0.0 0.0 0.00 0.00 0.00 81 1024.6
20260509153636 58 349 0.0 0.0 0.00 0.00 0.00 79 1024.7
20260509153132 59 357 0.0 0.0 0.00 0.00 0.00 79 1024.6
20260509152628 58 5 0.0 0.0 0.00 0.00 0.00 81 1024.9
20260509152126 57 351 0.0 0.0 0.00 0.00 0.00 80 1024.8
20260509151622 57 350 0.0 0.0 0.00 0.00 0.00 82 1024.7
20260509151120 56 78 0.0 0.0 0.00 0.00 0.00 83 1024.9
20260509150617 55 28 0.0 0.0 0.00 0.00 0.00 84 1024.8
20260509150116 55 353 0.0 0.0 0.00 0.00 0.00 84 1024.9
20260509145611 54 108 0.0 0.0 0.00 0.00 0.00 85 1025.2
20260509145106 53 320 0.0 0.0 0.00 0.00 0.00 87 1024.9
20260509144604 53 88 0.0 0.0 0.00 0.00 0.00 87 1025.0
20260509144100 53 47 0.0 0.0 0.00 0.00 0.00 87 1025.2
20260509143557 53 187 0.0 0.0 0.00 0.00 0.00 88 1025.2
20260509143055 52 325 0.0 0.0 0.00 0.00 0.00 87 1025.3
20260509142550 52 291 0.0 0.0 0.00 0.00 0.00 88 1025.3
20260509142047 52 340 0.0 0.0 0.00 0.00 0.00 89 1025.4
20260509141543 52 5 0.0 0.0 0.00 0.00 0.00 89 1025.4
20260509141040 51 261 0.0 0.0 0.00 0.00 0.00 89 1025.3
20260509140537 51 134 0.0 0.0 0.00 0.00 0.00 91 1025.5
20260509140035 51 108 0.0 0.0 0.00 0.00 0.00 91 1025.4
20260509135531 51 306 0.0 0.0 0.00 0.00 0.00 93 1025.5
20260509135029 51 337 0.0 0.0 0.00 0.00 0.00 94 1025.4
20260509134526 50 336 0.0 0.0 0.00 0.00 0.00 94 1025.5
20260509134024 50 325 0.0 0.0 0.00 0.00 0.00 95 1025.6
20260509133520 50 324 0.0 0.0 0.00 0.00 0.00 94 1025.4
20260509133018 50 304 0.0 0.0 0.00 0.00 0.00 93 1025.7
20260509132516 50 295 0.0 0.0 0.00 0.00 0.00 92 1025.6
20260509132014 50 291 0.0 0.0 0.00 0.00 0.00 92 1025.5
20260509131510 50 305 0.0 0.0 0.00 0.00 0.00 92 1025.4
20260509131007 50 311 0.0 0.0 0.00 0.00 0.00 93 1025.2
20260509130502 50 303 0.0 0.0 0.00 0.00 0.00 93 1025.3
20260509125959 50 331 0.0 0.0 0.00 0.00 0.00 93 1025.3
20260509125456 50 335 0.0 0.0 0.00 0.00 0.00 94 1025.3
20260509124951 50 336 0.0 0.0 0.00 0.00 0.00 94 1025.4